Theta_e
292 293 288 287 287 288 289 287 286 287 286 285 287 286 289 291 291 295 296 295 293 290 289 288 287 287 287 286 286 286 287 287 288 287 287 287 286 287 287 288 288 289 289 288
293 286 286 286 287 285 286 284 286 287 285 285 286 285 290 290 289 292 294 294 293 290 288 287 287 287 285 285 285 286 286 286 286 286 286 286 286 287 287 287 287 288 287 287
289 285 286 285 286 286 285 283 283 282 285 284 284 290 288 285 286 288 291 294 293 290 288 287 286 286 286 285 285 285 286 286 286 286 286 286 286 286 285 285 285 286 286 286
286 286 285 285 284 285 282 284 283 282 283 284 284 285 290 285 285 285 287 289 290 290 288 288 286 286 286 285 285 285 286 286 285 286 285 284 283 282 284 284 285 285 286 285
284 285 284 284 282 285 284 284 283 282 282 281 281 282 290 284 286 286 287 288 289 290 289 287 287 286 286 285 285 286 285 286 285 285 284 284 283 283 284 284 284 284 285 285
285 287 286 283 284 285 285 282 282 282 283 285 273 279 288 289 287 287 287 287 288 288 288 287 287 286 285 286 286 286 285 284 285 284 284 283 282 282 282 282 282 283 283 284
285 284 284 284 283 285 285 287 287 285 286 285 271 277 286 288 286 287 287 287 287 288 288 287 285 284 285 285 285 286 284 283 283 283 283 282 282 282 281 281 281 281 281 282
284 288 284 283 282 281 281 283 285 277 279 280 270 279 288 287 285 285 284 285 285 286 287 286 285 285 284 284 285 285 283 281 282 281 281 281 281 281 281 281 281 280 281 281
283 284 283 282 282 282 281 285 280 277 266 274 281 283 288 285 284 284 284 284 285 286 286 285 285 284 284 284 285 282 281 281 280 281 280 280 280 280 280 280 280 280 281 280
280 283 281 281 282 282 282 282 283 282 279 277 280 278 283 288 288 284 284 285 286 286 285 285 284 283 282 283 281 281 280 279 280 280 280 279 279 279 279 279 278 278 279 279
281 283 285 280 281 283 280 281 279 280 279 278 277 283 289 287 286 286 284 283 284 281 283 283 281 280 281 280 279 279 279 278 278 278 278 278 278 278 278 277 277 277 278 277
283 280 281 287 280 282 281 282 282 280 279 277 274 278 283 285 280 278 282 283 282 278 278 278 278 278 278 278 278 278 278 277 277 277 277 277 277 277 276 276 276 277 276 276
283 283 282 286 280 279 278 280 279 278 278 277 277 281 281 277 279 280 278 281 279 277 276 276 276 276 277 277 276 277 276 276 276 276 275 275 275 275 274 274 275 275 274 274
284 280 282 282 287 282 278 278 279 280 278 279 279 282 285 286 285 285 281 277 275 274 274 274 275 275 275 275 275 274 274 275 274 274 274 273 273 273 273 273 273 273 273 271
283 279 276 279 279 277 277 277 278 275 278 277 281 280 283 285 284 278 273 274 275 274 274 274 273 274 273 273 273 272 273 273 273 272 271 271 272 272 271 271 271 270 269 269
281 279 272 274 276 275 274 277 278 276 277 277 278 277 283 282 275 277 276 274 273 272 273 273 273 273 272 271 271 271 271 270 271 270 269 270 270 269 269 268 267 267 267 267
279 278 275 277 271 271 276 277 279 277 277 278 275 283 277 280 279 277 274 272 272 272 272 272 272 271 271 270 270 269 270 270 269 268 268 268 267 267 265 266 265 265 264 265
274 276 274 276 273 279 289 280 281 279 280 277 279 281 280 279 276 274 273 273 272 272 272 272 272 271 272 271 269 269 269 269 267 267 267 266 266 264 264 263 263 263 264 264
279 279 277 274 270 280 285 277 278 279 280 283 280 281 280 276 274 273 273 273 273 273 273 273 273 272 272 270 270 269 268 267 266 266 265 265 263 262 262 261 262 263 263 263
276 276 277 269 274 277 283 277 278 279 277 280 280 281 279 275 276 276 273 273 273 273 273 273 272 272 271 270 270 269 267 266 266 265 264 264 263 262 261 262 262 263 263 263
273 274 273 272 274 277 283 279 279 278 285 279 279 279 276 276 275 273 273 272 273 272 272 272 271 270 270 270 269 267 267 265 265 265 264 263 263 262 262 263 263 262 262 262
279 274 272 272 271 274 281 276 279 285 279 278 277 277 275 274 273 272 272 271 271 270 270 270 269 268 269 268 267 266 265 265 265 263 262 262 262 262 263 262 262 262 262 261
277 282 280 278 279 284 281 284 282 281 280 277 277 275 275 273 272 271 271 270 270 269 269 269 267 266 267 267 266 263 264 264 262 261 260 261 261 262 262 261 261 262 262 262
278 279 280 281 286 285 287 284 282 280 279 277 276 275 274 272 272 270 270 269 269 268 267 267 265 265 265 265 264 263 263 262 260 259 260 261 261 261 261 262 262 261 262 261
282 280 281 280 285 286 286 287 284 277 276 274 274 273 273 272 270 270 269 268 268 267 266 266 264 264 263 263 262 262 261 260 259 260 260 260 261 260 260 261 261 261 262 264
279 283 283 286 292 289 285 279 278 275 274 274 272 271 271 271 270 269 268 267 266 265 265 264 264 263 262 262 261 261 261 260 259 259 260 260 260 260 260 260 260 263 264 266
Wind_Speed
7 7 7 6 5 3 1 2 5 3 5 8 9 18 18 12 13 13 12 12 11 9 6 5 4 3 2 1 4 6 7 8 7 7 8 6 7 7 7 6 10 10 11 13
5 8 2 3 3 1 1 4 5 8 1 7 11 27 20 10 11 15 13 13 11 9 9 8 7 5 3 2 4 5 6 7 7 6 6 5 8 7 9 8 11 11 12 12
7 4 1 1 4 5 3 3 4 7 12 1 13 11 1 3 4 5 8 10 11 13 13 11 9 7 5 4 3 5 6 6 6 8 6 7 8 7 8 9 9 10 13 13
7 3 3 4 5 5 3 2 5 8 8 5 8 7 4 2 4 8 10 12 14 15 11 10 10 9 7 4 3 4 5 7 7 8 8 11 9 11 10 10 10 11 13 13
3 4 5 5 3 2 3 4 3 2 2 4 5 3 5 2 2 2 9 14 16 15 14 14 12 9 6 5 4 4 6 7 7 9 9 9 11 10 10 10 14 14 12 13
4 1 4 4 3 2 5 3 1 2 1 1 2 5 8 2 1 3 3 7 13 15 14 12 10 7 7 5 5 5 7 8 9 10 11 12 14 14 13 13 12 11 11 11
0 3 1 2 4 2 3 4 3 3 2 3 4 5 13 6 8 7 6 6 6 11 12 11 11 9 8 6 6 6 9 11 12 12 13 14 15 16 16 15 12 16 12 11
5 2 4 6 3 2 4 2 2 6 5 9 4 9 5 3 2 5 6 8 7 9 10 10 9 7 7 6 8 8 10 11 12 13 14 13 15 11 12 14 13 12 12 13
4 3 1 2 1 2 1 1 2 2 3 3 4 7 15 3 7 6 8 5 7 7 8 9 7 5 6 7 7 9 11 12 13 14 13 14 14 15 14 17 16 13 16 14
3 5 2 2 1 4 2 4 0 1 6 9 4 6 9 4 4 1 4 5 5 6 6 6 4 4 5 5 7 9 11 12 14 15 14 13 15 15 15 15 17 18 17 19
3 1 1 1 5 5 3 2 2 1 1 5 9 6 7 7 4 2 3 3 3 6 7 3 3 5 5 6 8 10 11 14 14 15 15 16 15 16 16 16 17 17 18 19
1 1 5 5 2 2 2 2 4 3 4 4 3 15 2 1 1 3 7 4 5 3 4 5 5 4 6 8 10 12 13 14 14 15 15 16 17 17 17 17 18 18 19 19
4 2 4 5 2 1 4 4 2 2 1 9 7 10 2 2 3 7 7 8 7 5 4 4 4 6 8 10 12 12 13 14 14 15 15 17 17 17 18 18 19 19 20 21
2 3 6 8 5 1 7 8 8 5 5 4 18 26 24 22 3 4 3 4 3 4 3 3 5 7 9 9 10 11 12 13 14 15 16 17 17 18 18 19 20 20 21 22
2 5 3 10 11 8 16 16 12 14 18 11 26 16 28 22 15 6 5 2 3 3 4 5 7 8 8 9 9 10 10 13 14 15 14 16 18 18 19 19 21 22 21 20
1 2 0 8 7 9 13 17 15 18 21 19 27 29 23 9 1 2 2 2 3 3 5 7 8 9 8 8 9 10 10 11 11 12 13 14 15 16 16 20 21 21 21 21
2 2 2 7 3 12 11 12 13 7 7 6 9 12 3 3 5 2 2 3 2 3 6 7 8 7 7 7 8 9 11 11 11 13 13 13 15 15 17 17 18 17 20 19
6 3 2 6 6 4 4 4 6 9 11 17 14 15 4 4 2 1 2 4 1 4 6 7 6 6 8 7 7 9 10 10 11 12 12 14 14 16 16 16 16 16 16 17
2 2 3 4 3 13 8 3 3 2 11 7 13 13 7 4 3 3 4 2 2 4 4 5 4 5 6 7 8 9 11 11 12 13 14 15 15 16 16 16 16 16 16 16
2 2 3 2 4 8 2 3 1 2 8 7 10 7 2 6 6 3 4 2 3 4 6 8 9 9 11 13 14 14 12 12 14 14 15 15 15 15 15 16 16 15 15 15
3 3 7 6 8 13 11 7 4 1 8 4 3 3 6 2 2 7 4 3 3 4 6 9 9 9 11 12 13 14 15 15 16 17 16 15 14 15 14 15 14 13 14 14
8 8 7 5 6 14 11 6 10 4 3 3 3 3 3 8 7 4 4 2 4 6 7 8 9 10 11 12 12 14 14 15 16 16 17 16 16 13 12 15 14 14 14 14
5 10 7 15 14 1 12 6 2 3 1 4 5 5 8 8 5 4 1 2 4 5 6 7 8 10 11 11 11 13 14 15 15 15 14 14 15 14 14 14 15 12 13 12
7 4 6 1 17 23 19 16 12 6 4 5 5 9 7 7 6 4 2 2 3 4 5 7 9 11 12 12 12 11 13 13 12 14 15 14 13 14 13 11 11 11 11 12
4 6 6 12 25 20 23 16 3 7 8 10 9 7 9 8 5 3 3 1 3 5 6 7 8 10 12 12 12 11 12 12 13 14 14 13 12 13 12 11 11 11 12 14
10 14 11 14 13 10 2 3 7 10 10 12 13 8 5 5 7 4 3 1 3 5 7 8 9 10 11 12 12 11 11 12 13 13 11 11 11 11 11 12 12 16 19 24
Wind_Direction
21 75 61 33 16 13 44 304 292 299 33 317 287 287 280 251 228 226 221 211 211 206 186 187 183 196 224 23 6 12 7 9 4 0 354 333 341 327 337 332 336 336 338 336
67 65 2 307 321 333 272 306 327 294 49 321 307 291 293 271 242 232 221 218 215 204 206 207 210 211 224 323 349 352 1 2 3 349 340 328 326 323 326 323 328 327 330 326
75 63 308 258 35 0 39 343 344 290 319 139 310 279 286 77 230 229 233 232 222 218 218 215 218 223 226 249 319 341 342 342 342 345 329 326 317 307 310 320 315 321 319 318
63 8 12 30 54 358 313 60 303 298 333 317 357 295 303 351 276 227 225 222 221 221 224 228 225 223 225 244 283 301 322 335 340 337 328 325 315 313 316 310 309 312 311 310
35 8 13 40 360 331 332 317 304 341 326 313 20 278 277 330 23 12 232 228 226 223 222 222 224 227 224 233 271 307 318 316 327 329 324 319 315 312 312 309 309 308 307 305
92 52 24 355 295 276 310 259 150 145 212 274 325 338 283 281 236 262 246 241 229 222 222 227 228 223 234 235 270 309 319 324 328 325 324 318 314 315 312 313 313 311 311 308
81 64 91 349 289 202 312 298 329 341 348 319 163 267 258 242 230 248 289 299 275 231 228 228 225 227 237 252 289 314 325 324 329 326 320 322 317 316 315 317 314 314 309 308
18 315 12 355 43 326 12 351 66 306 302 309 147 231 250 198 249 279 279 287 295 245 236 240 238 244 262 281 297 316 326 323 323 324 322 320 319 316 313 313 311 306 305 304
349 275 170 30 11 301 82 66 34 110 87 279 233 272 276 276 279 248 261 278 284 269 253 256 258 275 309 312 327 325 325 324 327 325 322 320 320 319 315 312 307 304 304 304
176 292 190 130 161 55 324 105 6 107 313 304 225 282 254 294 271 233 246 254 296 296 281 265 270 332 339 349 324 328 331 327 327 326 325 320 319 317 313 310 309 308 306 306
143 228 255 163 193 170 149 193 70 301 248 267 301 266 202 225 202 199 273 273 293 330 311 301 13 8 360 333 339 333 334 334 332 330 327 322 319 318 315 312 311 309 309 309
142 201 270 240 149 339 298 263 208 211 201 236 279 271 90 333 30 241 262 286 331 319 1 7 2 18 352 344 344 343 340 336 333 327 324 321 319 319 316 316 314 312 312 312
168 221 310 304 169 132 240 194 160 76 77 226 264 264 125 147 229 230 272 310 332 337 5 8 15 359 355 353 346 342 339 335 331 326 325 322 321 321 320 318 314 318 313 311
185 237 217 241 252 56 240 191 202 202 243 267 240 277 282 287 305 314 4 339 342 44 21 8 358 356 358 348 339 340 335 333 331 328 325 323 324 324 323 320 320 317 318 315
220 259 302 271 269 262 264 258 215 209 232 240 271 275 278 291 314 329 307 269 50 38 27 0 353 349 342 333 328 329 327 327 327 325 320 322 324 324 322 320 323 320 319 315
53 254 265 277 293 262 264 263 241 237 252 255 262 277 277 309 37 202 276 6 55 23 341 352 345 335 328 328 327 325 320 322 322 318 321 321 320 320 320 323 321 322 319 321
245 206 291 262 353 312 278 238 193 207 213 195 221 257 54 281 291 315 60 91 108 330 339 333 329 323 316 313 318 318 321 317 320 323 323 322 322 323 321 322 319 320 320 317
149 155 272 291 305 261 243 196 204 203 244 210 265 272 293 279 30 51 142 123 349 351 334 326 323 314 334 323 312 311 316 318 323 323 325 322 328 321 322 321 320 316 314 320
302 172 243 287 257 293 278 166 166 256 281 230 224 256 249 149 155 175 145 165 42 15 347 326 328 321 324 331 328 326 324 329 328 333 324 327 325 322 323 321 319 316 322 315
93 48 268 132 260 276 359 142 138 177 275 187 206 240 218 157 283 52 152 87 38 12 355 343 345 340 338 339 336 334 334 334 335 331 328 323 324 322 320 318 318 320 322 318
166 177 222 208 260 274 263 161 162 301 321 152 205 190 179 170 47 123 116 68 22 11 359 349 341 340 336 336 336 334 334 335 332 330 326 324 327 322 317 319 318 322 318 320
186 164 201 167 236 275 154 113 177 224 179 168 172 164 144 115 132 119 104 35 12 11 0 351 339 333 334 337 338 333 333 334 330 328 323 325 324 322 324 324 323 324 326 321
254 207 190 191 223 95 193 270 183 124 190 182 171 157 144 134 154 128 126 23 21 6 350 340 330 324 332 339 340 333 330 329 326 320 318 320 320 321 327 325 326 324 326 324
245 160 244 333 242 251 262 243 239 178 170 141 126 141 132 137 143 142 129 37 359 351 335 327 325 328 328 339 337 330 327 329 323 319 321 321 323 325 327 324 323 322 323 320
187 144 220 255 275 272 258 263 257 131 129 118 115 132 130 138 141 144 128 104 352 338 328 334 330 323 325 332 329 330 330 330 324 321 321 323 323 325 322 322 320 317 312 310
180 216 205 245 264 240 313 94 130 144 150 143 134 127 123 136 145 153 143 83 2 332 331 332 332 328 329 330 326 330 332 330 326 321 326 322 321 323 322 322 317 313 316 321